CW2274 Weather Reports


time (UTC)temp
F
wind
direction
speed
knots
gust
knots
rain 1hr
in
rain 24hr
in
rain mn
in
humidity
%
barometer
mb
20260507070528 64 296 0.0 1.7 0.00 0.00 0.00 29 1016.4
20260507070037 64 296 0.0 1.7 0.00 0.00 0.00 29 1016.5
20260507065518 65 296 0.9 1.7 0.00 0.00 0.00 29 1016.4
20260507065018 65 296 0.9 1.7 0.00 0.00 0.00 28 1016.3
20260507064514 65 296 0.0 1.7 0.00 0.00 0.00 27 1016.4
20260507064029 66 296 0.0 2.6 0.00 0.00 0.00 28 1016.4
20260507063524 66 296 0.9 1.7 0.00 0.00 0.00 27 1016.4
20260507063020 66 296 0.0 1.7 0.00 0.00 0.00 27 1016.4
20260507062516 66 296 0.9 1.7 0.00 0.00 0.00 26 1016.3
20260507062012 67 296 0.9 1.7 0.00 0.00 0.00 26 1016.3
20260507061511 66 296 0.9 3.5 0.00 0.00 0.00 27 1016.3
20260507061027 66 296 0.9 5.2 0.00 0.00 0.00 27 1016.3
20260507060523 67 299 0.9 5.2 0.00 0.00 0.00 26 1016.3
20260507060030 66 288 0.9 3.5 0.00 0.00 0.00 26 1016.3
20260507055511 67 290 0.9 3.5 0.00 0.00 0.00 26 1016.3
20260507055027 67 290 0.9 2.6 0.00 0.00 0.00 26 1016.3
20260507054523 67 290 0.9 3.5 0.00 0.00 0.00 26 1016.3
20260507054019 67 289 0.9 3.5 0.00 0.00 0.00 25 1016.4
20260507053518 67 288 0.9 3.5 0.00 0.00 0.00 25 1016.4
20260507053014 67 287 0.9 3.5 0.00 0.00 0.00 25 1016.3
20260507052530 67 290 0.9 3.5 0.00 0.00 0.00 25 1016.4
20260507052026 67 290 1.7 5.2 0.00 0.00 0.00 25 1016.2
20260507051522 68 286 0.9 6.1 0.00 0.00 0.00 25 1016.3
20260507051018 68 285 0.9 6.1 0.00 0.00 0.00 25 1016.3
20260507050513 68 288 1.7 3.5 0.00 0.00 0.00 25 1016.3
20260507050025 68 290 0.9 2.6 0.00 0.00 0.00 26 1016.2
20260507045527 68 290 0.9 1.7 0.00 0.00 0.00 25 1016.1
20260507045023 68 290 0.9 1.7 0.00 0.00 0.00 25 1016.1
20260507044518 68 290 0.0 2.6 0.00 0.00 0.00 25 1016.0
20260507044014 69 290 0.0 2.6 0.00 0.00 0.00 24 1016.0
20260507043530 69 290 0.0 6.1 0.00 0.00 0.00 24 1016.0
20260507043026 69 296 0.9 6.1 0.00 0.00 0.00 24 1015.8
20260507042525 69 293 1.7 3.5 0.00 0.00 0.00 24 1015.8
20260507042021 69 296 0.0 3.5 0.00 0.00 0.00 24 1015.8
20260507041517 70 292 0.9 4.3 0.00 0.00 0.00 23 1015.8
20260507041013 70 292 1.7 4.3 0.00 0.00 0.00 23 1015.8
20260507040528 70 294 0.9 4.3 0.00 0.00 0.00 23 1015.8
20260507040036 70 298 0.9 4.3 0.00 0.00 0.00 23 1015.7
20260507035517 70 293 0.9 3.5 0.00 0.00 0.00 23 1015.7
20260507035017 71 302 1.7 3.5 0.00 0.00 0.00 22 1015.7
20260507034533 71 292 0.9 4.3 0.00 0.00 0.00 22 1015.5
20260507034028 71 299 1.7 4.3 0.00 0.00 0.00 22 1015.6
20260507033524 71 304 0.9 2.6 0.00 0.00 0.00 22 1015.4
20260507033020 71 311 0.9 2.6 0.00 0.00 0.00 23 1015.5
20260507032516 71 289 0.9 2.6 0.00 0.00 0.00 23 1015.4
20260507032031 71 288 0.9 5.2 0.00 0.00 0.00 22 1015.4
20260507031527 72 286 1.7 5.2 0.00 0.00 0.00 22 1015.2
20260507031027 72 296 0.9 3.5 0.00 0.00 0.00 22 1015.3
20260507030522 72 300 0.9 3.5 0.00 0.00 0.00 22 1015.2
20260507030030 72 303 0.9 3.5 0.00 0.00 0.00 22 1015.1
20260507025531 72 308 0.9 2.6 0.00 0.00 0.00 21 1015.1
20260507025027 73 312 0.0 4.3 0.00 0.00 0.00 21 1015.0
20260507024523 73 312 0.9 4.3 0.00 0.00 0.00 21 1014.9
20260507024018 73 327 0.9 4.3 0.00 0.00 0.00 21 1014.8
20260507023518 73 295 0.9 4.3 0.00 0.00 0.00 21 1014.8
20260507023014 74 326 0.9 6.1 0.00 0.00 0.00 20 1014.8
20260507022530 74 323 0.9 2.6 0.00 0.00 0.00 20 1014.8
20260507022025 74 320 0.9 1.7 0.00 0.00 0.00 21 1014.7
20260507021521 74 320 0.9 2.6 0.00 0.00 0.00 20 1014.7
20260507021017 74 321 0.9 3.5 0.00 0.00 0.00 20 1014.7
20260507020533 75 298 0.9 4.3 0.00 0.00 0.00 20 1014.7
20260507020045 75 307 0.9 4.3 0.00 0.00 0.00 20 1014.6
20260507015526 75 348 0.0 4.3 0.00 0.00 0.00 21 1014.4
20260507015022 76 299 1.7 4.3 0.00 0.00 0.00 19 1014.5
20260507014517 76 326 0.9 4.3 0.00 0.00 0.00 19 1014.5
20260507014033 76 345 0.9 6.1 0.00 0.00 0.00 20 1014.5
20260507013021 76 324 0.9 4.3 0.00 0.00 0.00 19 1014.6
20260507012520 76 336 0.9 4.3 0.00 0.00 0.00 19 1014.6
20260507012016 77 317 0.9 4.3 0.00 0.00 0.00 20 1014.5
20260507011532 77 298 1.7 4.3 0.00 0.00 0.00 19 1014.5
20260507010524 77 356 2.6 6.1 0.00 0.00 0.00 20 1014.5
20260507010031 77 354 0.9 4.3 0.00 0.00 0.00 19 1014.6
20260507005532 78 312 1.7 4.3 0.00 0.00 0.00 19 1014.6
20260507005028 78 294 0.9 7.8 0.00 0.00 0.00 18 1014.5
20260507004528 78 290 3.5 7.8 0.00 0.00 0.00 19 1014.6
20260507004024 79 352 0.9 7.8 0.00 0.00 0.00 19 1014.5
20260507003520 79 273 1.7 7.8 0.00 0.00 0.00 19 1014.5
20260507003015 79 294 1.7 7.8 0.00 0.00 0.00 18 1014.5
20260507002531 79 277 1.7 7.8 0.00 0.00 0.00 18 1014.5
20260507002027 78 285 3.5 7.0 0.00 0.00 0.00 18 1014.4
20260507001523 79 302 2.6 6.1 0.00 0.00 0.00 18 1014.4
20260507001023 79 344 0.9 5.2 0.00 0.00 0.00 19 1014.6
20260507000518 79 1 0.9 6.1 0.00 0.00 0.00 18 1014.5
20260507000045 80 335 1.7 6.1 0.00 0.00 0.00 18 1014.5
20260506235526 80 298 1.7 7.8 0.00 0.00 0.00 18 1014.5
20260506235022 79 283 2.6 7.8 0.00 0.00 0.00 17 1014.5
20260506234518 80 290 2.6 7.0 0.00 0.00 0.00 17 1014.5
20260506234013 80 292 3.5 7.0 0.00 0.00 0.00 17 1014.4
20260506233532 80 273 1.7 7.0 0.00 0.00 0.00 17 1014.4
20260506233028 80 353 2.6 6.1 0.00 0.00 0.00 17 1014.4
20260506232026 80 19 1.7 5.2 0.00 0.00 0.00 18 1014.5
20260506231522 80 31 2.6 9.6 0.00 0.00 0.00 18 1014.5
20260506231018 79 333 3.5 9.6 0.00 0.00 0.00 18 1014.6
20260506230514 78 358 3.5 6.1 0.00 0.00 0.00 18 1014.7
20260506230043 80 31 2.6 5.2 0.00 0.00 0.00 18 1014.8
20260506225524 80 332 0.9 3.5 0.00 0.00 0.00 18 1014.8
20260506225023 79 309 0.9 3.5 0.00 0.00 0.00 19 1014.7
20260506224519 79 342 0.9 7.0 0.00 0.00 0.00 18 1014.8
20260506224014 79 2 3.5 7.0 0.00 0.00 0.00 19 1014.8
20260506223530 80 281 1.7 6.1 0.00 0.00 0.00 18 1014.7
20260506223026 81 276 2.6 5.2 0.00 0.00 0.00 17 1014.8
20260506222521 80 293 1.7 7.8 0.00 0.00 0.00 16 1014.9
20260506222017 81 312 3.5 8.7 0.00 0.00 0.00 18 1014.9
20260506221517 79 29 3.5 8.7 0.00 0.00 0.00 19 1014.9
20260506221032 80 301 3.5 7.8 0.00 0.00 0.00 19 1015.0
20260506220527 81 285 2.6 6.1 0.00 0.00 0.00 19 1015.1
20260506220036 81 250 3.5 6.1 0.00 0.00 0.00 19 1015.1
20260506215020 80 352 0.9 7.8 0.00 0.00 0.00 20 1015.3
20260506214517 78 9 2.6 6.1 0.00 0.00 0.00 22 1015.4
20260506214013 79 213 1.7 5.2 0.00 0.00 0.00 20 1015.4
20260506213514 78 36 0.9 5.2 0.00 0.00 0.00 22 1015.5
20260506213021 80 293 3.5 7.0 0.00 0.00 0.00 21 1015.5
20260506212517 80 287 2.6 7.0 0.00 0.00 0.00 20 1015.6
20260506212013 79 312 2.6 7.0 0.00 0.00 0.00 21 1015.6
20260506211528 78 24 3.5 7.0 0.00 0.00 0.00 20 1015.7
20260506211024 79 290 2.6 7.0 0.00 0.00 0.00 20 1015.8
20260506210028 77 19 0.9 5.2 0.00 0.00 0.00 23 1016.0
20260506205513 79 31 1.7 7.8 0.00 0.00 0.00 21 1016.0
20260506205029 80 267 2.6 7.8 0.00 0.00 0.00 22 1016.1
20260506204524 76 211 1.7 5.2 0.00 0.00 0.00 23 1016.0
20260506204020 77 272 1.7 6.1 0.00 0.00 0.00 23 1016.1
20260506203516 79 281 1.7 6.1 0.00 0.00 0.00 22 1016.3
20260506203032 78 287 0.9 2.6 0.00 0.00 0.00 22 1016.3
20260506202528 78 309 0.9 6.1 0.00 0.00 0.00 22 1016.4
20260506202027 79 290 0.9 6.1 0.00 0.00 0.00 23 1016.4
20260506201523 77 287 1.7 4.3 0.00 0.00 0.00 25 1016.4
20260506201019 79 360 0.9 4.3 0.00 0.00 0.00 24 1016.5
20260506200515 78 358 1.7 3.5 0.00 0.00 0.00 24 1016.5
20260506200042 76 173 1.7 7.8 0.00 0.00 0.00 26 1016.6
20260506195524 77 240 0.9 10.4 0.00 0.00 0.00 24 1016.7
20260506195019 78 221 2.6 10.4 0.00 0.00 0.00 26 1016.8
20260506194519 77 298 0.9 8.7 0.00 0.00 0.00 27 1016.8
20260506194014 79 290 5.2 8.7 0.00 0.00 0.00 24 1016.9
20260506193530 76 206 0.0 5.2 0.00 0.00 0.00 27 1016.9
20260506193026 75 205 0.9 5.2 0.00 0.00 0.00 27 1017.0
20260506192521 77 280 1.7 5.2 0.00 0.00 0.00 26 1017.2
20260506192017 75 347 0.9 4.3 0.00 0.00 0.00 28 1017.2
20260506191513 75 358 1.7 4.3 0.00 0.00 0.00 28 1017.3
20260506191013 76 330 1.7 7.0 0.00 0.00 0.00 27 1017.2
20260506190529 74 102 2.6 8.7 0.00 0.00 0.00 29 1017.3
20260506190037 76 81 2.6 8.7 0.00 0.00 0.00 26 1017.3
20260506185518 76 296 0.9 6.1 0.00 0.00 0.00 27 1017.3
20260506185014 76 287 1.7 6.1 0.00 0.00 0.00 28 1017.4
20260506184530 74 342 2.6 8.7 0.00 0.00 0.00 30 1017.5
20260506184026 75 277 0.9 8.7 0.00 0.00 0.00 28 1017.5
20260506183522 75 286 2.6 7.0 0.00 0.00 0.00 29 1017.4
20260506183021 74 49 3.5 6.1 0.00 0.00 0.00 28 1017.5
20260506182517 75 29 0.9 7.0 0.00 0.00 0.00 29 1017.7
20260506182013 75 270 1.7 7.8 0.00 0.00 0.00 30 1017.7
20260506181529 76 285 3.5 7.8 0.00 0.00 0.00 28 1017.7
20260506181025 74 292 2.6 7.0 0.00 0.00 0.00 29 1017.9
20260506180521 73 145 0.9 6.1 0.00 0.00 0.00 30 1018.0
20260506180028 74 330 0.9 3.5 0.00 0.00 0.00 30 1018.0
20260506175513 72 295 1.7 5.2 0.00 0.00 0.00 31 1018.0
20260506175029 72 284 2.6 5.2 0.00 0.00 0.00 31 1018.0
20260506174525 73 329 1.7 3.5 0.00 0.00 0.00 30 1018.0
20260506174021 71 126 1.7 4.3 0.00 0.00 0.00 32 1018.0
20260506173517 69 133 1.7 5.2 0.00 0.00 0.00 32 1018.0
20260506173013 70 104 2.6 7.8 0.00 0.00 0.00 31 1018.0
20260506172528 70 49 1.7 4.3 0.00 0.00 0.00 33 1018.0
20260506172028 70 43 2.6 5.2 0.00 0.00 0.00 32 1018.0
20260506171524 70 38 2.6 6.1 0.00 0.00 0.00 34 1017.9
20260506171020 70 66 0.9 3.5 0.00 0.00 0.00 36 1017.9
20260506170516 70 22 0.9 5.2 0.00 0.00 0.00 35 1017.9
20260506170043 70 13 1.7 5.2 0.00 0.00 0.00 37 1018.0
20260506165525 69 60 0.9 3.5 0.00 0.00 0.00 36 1018.0
20260506165020 68 64 0.9 3.5 0.00 0.00 0.00 41 1018.0
20260506164520 69 64 0.9 6.1 0.00 0.00 0.00 38 1017.9
20260506164016 68 83 2.6 6.1 0.00 0.00 0.00 38 1018.0
20260506163512 68 360 0.9 5.2 0.00 0.00 0.00 39 1017.9
20260506163027 68 27 2.6 5.2 0.00 0.00 0.00 39 1017.9
20260506162523 68 335 0.9 2.6 0.00 0.00 0.00 37 1017.7
20260506162059 68 352 1.7 2.6 0.00 0.00 0.00 42 1017.7
20260506161529 68 10 1.7 2.6 0.00 0.00 0.00 43 1017.7
20260506161025 68 344 0.9 2.6 0.00 0.00 0.00 44 1017.7
20260506160521 68 344 0.9 1.7 0.00 0.00 0.00 43 1017.8
20260506160033 67 73 0.0 3.5 0.00 0.00 0.00 45 1017.8
20260506155515 66 73 0.9 3.5 0.00 0.00 0.00 46 1017.7
20260506155031 65 88 0.9 4.3 0.00 0.00 0.00 47 1017.8
20260506154526 65 88 1.7 4.3 0.00 0.00 0.00 49 1017.7
20260506154023 65 94 1.7 3.5 0.00 0.00 0.00 47 1017.7
20260506153518 65 94 0.0 2.6 0.00 0.00 0.00 49 1017.7
20260506153014 65 94 0.9 2.6 0.00 0.00 0.00 49 1017.6
20260506152514 64 94 0.9 2.6 0.00 0.00 0.00 50 1017.7
20260506152030 64 98 0.9 1.7 0.00 0.00 0.00 51 1017.7
20260506151525 63 97 0.9 3.5 0.00 0.00 0.00 51 1017.7
20260506151022 63 98 1.7 3.5 0.00 0.00 0.00 52 1017.7
20260506150518 63 105 1.7 2.6 0.00 0.00 0.00 52 1017.7
20260506150045 62 106 0.9 2.6 0.00 0.00 0.00 55 1017.7
20260506145527 62 106 1.7 3.5 0.00 0.00 0.00 56 1017.6
20260506145027 61 108 2.6 3.5 0.00 0.00 0.00 57 1017.5
20260506144523 61 120 1.7 3.5 0.00 0.00 0.00 58 1017.6
20260506144018 60 128 1.7 3.5 0.00 0.00 0.00 58 1017.7
20260506143514 60 128 1.7 3.5 0.00 0.00 0.00 59 1017.6
20260506143030 59 272 1.7 2.6 0.00 0.00 0.00 61 1017.7
20260506142526 60 276 0.0 2.6 0.00 0.00 0.00 61 1017.7
20260506142022 59 275 0.9 2.6 0.00 0.00 0.00 61 1017.7
20260506141522 59 276 0.9 1.7 0.00 0.00 0.00 61 1017.7
20260506141018 59 275 0.9 1.7 0.00 0.00 0.00 64 1017.6
20260506140513 59 273 0.9 1.7 0.00 0.00 0.00 63 1017.7
20260506140042 57 271 0.9 2.6 0.00 0.00 0.00 65 1017.6
20260506135523 57 270 1.7 2.6 0.00 0.00 0.00 66 1017.5
20260506135018 57 271 1.7 2.6 0.00 0.00 0.00 68 1017.6
20260506134513 56 272 1.7 2.6 0.00 0.00 0.00 68 1017.5
20260506134013 56 271 0.0 0.0 0.00 0.00 0.00 69 1017.5
20260506133530 57 271 0.0 0.0 0.00 0.00 0.00 70 1017.5
20260506133026 56 271 0.0 0.0 0.00 0.00 0.00 71 1017.4
20260506132522 55 271 0.0 0.0 0.00 0.00 0.00 73 1017.3
20260506132018 55 271 0.0 0.0 0.00 0.00 0.00 75 1017.3
20260506131514 54 271 0.0 0.0 0.00 0.00 0.00 76 1017.3
20260506131029 54 271 0.0 0.0 0.00 0.00 0.00 77 1017.2
20260506130525 53 271 0.0 0.0 0.00 0.00 0.00 77 1017.1
20260506130036 53 271 0.0 0.0 0.00 0.00 0.00 76 1017.1
20260506125518 52 271 0.0 0.0 0.00 0.00 0.00 77 1017.1
20260506125014 52 271 0.0 0.0 0.00 0.00 0.00 77 1017.1
20260506124529 52 273 0.0 0.0 0.00 0.00 0.00 77 1017.1
20260506124025 52 273 0.0 0.9 0.00 0.00 0.00 78 1017.0
20260506123521 51 273 0.0 0.9 0.00 0.00 0.00 78 1017.0
20260506123018 51 273 0.0 0.0 0.00 0.00 0.00 77 1017.0
20260506122518 52 273 0.0 0.0 0.00 0.00 0.00 76 1016.8
20260506122014 52 273 0.0 0.0 0.00 0.00 0.00 77 1016.8
20260506121530 52 273 0.0 0.0 0.00 0.00 0.00 78 1016.8
20260506121025 52 273 0.0 0.0 0.00 0.00 0.00 76 1016.7
20260506120521 53 273 0.0 0.0 0.00 0.00 0.00 77 1016.7
20260506120029 52 273 0.0 0.0 0.00 0.00 0.00 78 1016.7
20260506115530 52 273 0.0 0.0 0.00 0.02 0.00 76 1016.6
20260506115030 52 273 0.0 0.0 0.00 0.02 0.00 76 1016.6
20260506114526 53 273 0.0 0.0 0.00 0.02 0.00 75 1016.5
20260506114021 53 273 0.0 0.0 0.00 0.02 0.00 73 1016.6
20260506113517 54 273 0.0 0.0 0.00 0.02 0.00 72 1016.4
20260506113013 54 273 0.0 0.0 0.00 0.02 0.00 70 1016.4
20260506112529 54 273 0.0 0.0 0.00 0.02 0.00 71 1016.3
20260506112025 53 273 0.0 0.0 0.00 0.02 0.00 72 1016.3
20260506111525 54 273 0.0 0.0 0.00 0.02 0.00 71 1016.3
20260506111020 54 273 0.0 0.0 0.00 0.02 0.00 69 1016.3
20260506110516 54 273 0.0 0.0 0.00 0.02 0.00 70 1016.3
20260506110042 54 273 0.0 0.0 0.00 0.02 0.00 71 1016.2
20260506105523 54 273 0.0 0.0 0.00 0.03 0.00 71 1016.2
20260506105019 53 273 0.0 0.0 0.00 0.03 0.00 72 1016.2
20260506104515 54 273 0.0 0.0 0.00 0.03 0.00 69 1016.1
20260506104015 54 273 0.0 0.9 0.00 0.03 0.00 72 1016.1
20260506103531 54 273 0.0 0.9 0.00 0.03 0.00 72 1016.0
20260506103026 54 273 0.9 1.7 0.00 0.03 0.00 72 1015.9
20260506102522 54 273 0.9 1.7 0.00 0.03 0.00 70 1016.0
20260506102018 55 273 0.0 0.0 0.00 0.03 0.00 69 1016.0
20260506101514 54 273 0.0 0.0 0.00 0.03 0.00 71 1015.8
20260506101030 55 273 0.0 0.0 0.00 0.03 0.00 70 1015.8
20260506100526 55 273 0.0 0.0 0.00 0.03 0.00 69 1015.8
20260506100037 55 273 0.0 0.0 0.00 0.03 0.00 70 1015.8
20260506095518 54 273 0.0 0.0 0.00 0.05 0.00 73 1015.7
20260506095014 54 273 0.0 0.0 0.00 0.05 0.00 72 1015.7
20260506094530 55 273 0.0 0.0 0.00 0.05 0.00 71 1015.6
20260506094025 55 273 0.0 0.9 0.00 0.05 0.00 70 1015.5
20260506093521 55 273 0.0 0.9 0.00 0.05 0.00 70 1015.6
20260506093017 55 273 0.0 0.9 0.00 0.05 0.00 71 1015.6
20260506092518 55 273 0.0 0.0 0.00 0.05 0.00 69 1015.7
20260506092014 56 273 0.0 0.9 0.00 0.05 0.00 68 1015.6
20260506091529 56 273 0.0 0.9 0.00 0.05 0.00 68 1015.6
20260506091025 56 273 0.0 0.9 0.00 0.05 0.00 67 1015.7
20260506090521 56 273 0.0 0.9 0.00 0.05 0.00 67 1015.7
20260506090028 57 273 0.0 0.0 0.00 0.05 0.00 67 1015.8
20260506085530 57 273 0.0 0.0 0.00 0.08 0.00 68 1015.6
20260506085030 56 273 0.0 0.0 0.00 0.08 0.00 67 1015.7
20260506084525 57 273 0.0 0.0 0.00 0.08 0.00 65 1015.7
20260506084021 58 273 0.0 0.9 0.00 0.08 0.00 63 1015.7
20260506083517 58 273 0.0 1.7 0.00 0.08 0.00 62 1015.7
20260506083013 58 273 0.0 1.7 0.00 0.08 0.00 62 1015.7
20260506082528 58 273 0.0 1.7 0.00 0.08 0.00 63 1015.7
20260506082024 59 273 0.0 1.7 0.00 0.08 0.00 61 1015.8
20260506081524 59 273 0.0 1.7 0.00 0.08 0.00 60 1015.8
20260506081019 59 273 0.0 1.7 0.00 0.08 0.00 59 1015.9
20260506080515 59 273 0.9 5.2 0.00 0.08 0.00 61 1015.9
20260506073512 59 273 0.0 1.7 0.00 0.14 0.00 63 1015.9
20260506073027 59 273 0.0 1.7 0.00 0.14 0.00 61 1015.9
20260506072522 60 273 0.0 0.9 0.00 0.14 0.00 59 1015.9
20260506072038 60 273 0.0 0.9 0.00 0.14 0.00 59 1015.9
20260506071526 60 273 0.0 1.7 0.00 0.14 0.00 58 1015.8
20260506071022 60 273 0.0 1.7 0.00 0.14 0.00 59 1015.8